Year,Month,Day,Hour,Minute,Value (Times are PST for temperature in C)
2022,07,30,00,00,24.60
2022,07,30,00,01,24.70
2022,07,30,00,02,24.70
2022,07,30,00,03,24.70
2022,07,30,00,04,24.70
2022,07,30,00,05,24.70
2022,07,30,00,06,24.70
2022,07,30,00,07,24.60
2022,07,30,00,08,24.60
2022,07,30,00,09,24.60
2022,07,30,00,10,24.60
2022,07,30,00,11,24.60
2022,07,30,00,12,24.60
2022,07,30,00,13,24.60
2022,07,30,00,14,24.60
2022,07,30,00,15,24.50
2022,07,30,00,16,24.50
2022,07,30,00,17,24.50
2022,07,30,00,18,24.50
2022,07,30,00,19,24.40
2022,07,30,00,20,24.40
2022,07,30,00,21,24.40
2022,07,30,00,22,24.40
2022,07,30,00,23,24.40
2022,07,30,00,24,24.40
2022,07,30,00,25,24.30
2022,07,30,00,26,24.30
2022,07,30,00,27,24.30
2022,07,30,00,28,24.30
2022,07,30,00,29,24.30
2022,07,30,00,30,24.30
2022,07,30,00,31,24.30
2022,07,30,00,32,24.20
2022,07,30,00,33,24.20
2022,07,30,00,34,24.20
2022,07,30,00,35,24.20
2022,07,30,00,36,24.10
2022,07,30,00,37,24.10
2022,07,30,00,38,24.00
2022,07,30,00,39,24.00
2022,07,30,00,40,23.90
2022,07,30,00,41,23.80
2022,07,30,00,42,23.80
2022,07,30,00,43,23.80
2022,07,30,00,44,23.70
2022,07,30,00,45,23.70
2022,07,30,00,46,23.70
2022,07,30,00,47,23.60
2022,07,30,00,48,23.60
2022,07,30,00,49,23.60
2022,07,30,00,50,23.60
2022,07,30,00,51,23.60
2022,07,30,00,52,23.50
2022,07,30,00,53,23.50
2022,07,30,00,54,23.50
2022,07,30,00,55,23.50
2022,07,30,00,56,23.40
2022,07,30,00,57,23.40
2022,07,30,00,58,23.40
2022,07,30,00,59,23.40
2022,07,30,01,00,23.40
2022,07,30,01,01,23.40
2022,07,30,01,02,23.40
2022,07,30,01,03,23.30
2022,07,30,01,04,23.30
2022,07,30,01,05,23.30
2022,07,30,01,06,23.30
2022,07,30,01,07,23.20
2022,07,30,01,08,23.20
2022,07,30,01,09,23.20
2022,07,30,01,10,23.10
2022,07,30,01,11,23.10
2022,07,30,01,12,23.10
2022,07,30,01,13,23.00
2022,07,30,01,14,23.00
2022,07,30,01,15,23.00
2022,07,30,01,16,23.00
2022,07,30,01,17,22.90
2022,07,30,01,18,22.90
2022,07,30,01,19,22.90
2022,07,30,01,20,22.90
2022,07,30,01,21,22.90
2022,07,30,01,22,22.90
2022,07,30,01,23,22.90
2022,07,30,01,24,22.80
2022,07,30,01,25,22.80
2022,07,30,01,26,22.80
2022,07,30,01,27,22.80
2022,07,30,01,28,22.70
2022,07,30,01,29,22.70
2022,07,30,01,30,22.70
2022,07,30,01,31,22.60
2022,07,30,01,32,22.60
2022,07,30,01,33,22.50
2022,07,30,01,34,22.50
2022,07,30,01,35,22.40
2022,07,30,01,36,22.40
2022,07,30,01,37,22.40
2022,07,30,01,38,22.40
2022,07,30,01,39,22.40
2022,07,30,01,40,22.30
2022,07,30,01,41,22.30
2022,07,30,01,42,22.30
2022,07,30,01,43,22.30
2022,07,30,01,44,22.30
2022,07,30,01,45,22.30
2022,07,30,01,46,22.30
2022,07,30,01,47,22.20
2022,07,30,01,48,22.20
2022,07,30,01,49,22.20
2022,07,30,01,50,22.20
2022,07,30,01,51,22.20
2022,07,30,01,52,22.20
2022,07,30,01,53,22.20
2022,07,30,01,54,22.20
2022,07,30,01,55,22.20
2022,07,30,01,56,22.30
2022,07,30,01,57,22.30
2022,07,30,01,58,22.30
2022,07,30,01,59,22.30
2022,07,30,02,00,22.30
2022,07,30,02,01,22.30
2022,07,30,02,02,22.20
2022,07,30,02,03,22.20
2022,07,30,02,04,22.20
2022,07,30,02,05,22.20
2022,07,30,02,06,22.20
2022,07,30,02,07,22.20
2022,07,30,02,08,22.20
2022,07,30,02,09,22.20
2022,07,30,02,10,22.20
2022,07,30,02,11,22.20
2022,07,30,02,12,22.10
2022,07,30,02,13,22.10
2022,07,30,02,14,22.10
2022,07,30,02,15,22.10
2022,07,30,02,16,22.10
2022,07,30,02,17,22.10
2022,07,30,02,18,22.10
2022,07,30,02,19,22.10
2022,07,30,02,20,22.10
2022,07,30,02,21,22.10
2022,07,30,02,22,22.10
2022,07,30,02,23,22.00
2022,07,30,02,24,22.00
2022,07,30,02,25,22.00
2022,07,30,02,26,22.00
2022,07,30,02,27,22.00
2022,07,30,02,28,21.90
2022,07,30,02,29,21.90
2022,07,30,02,30,21.90
2022,07,30,02,31,21.90
2022,07,30,02,32,21.80
2022,07,30,02,33,21.80
2022,07,30,02,34,21.80
2022,07,30,02,35,21.80
2022,07,30,02,36,21.80
2022,07,30,02,37,21.70
2022,07,30,02,38,21.70
2022,07,30,02,39,21.70
2022,07,30,02,40,21.70
2022,07,30,02,41,21.70
2022,07,30,02,42,21.70
2022,07,30,02,43,21.70
2022,07,30,02,44,21.70
2022,07,30,02,45,21.70
2022,07,30,02,46,21.70
2022,07,30,02,47,21.70
2022,07,30,02,48,21.70
2022,07,30,02,49,21.70
2022,07,30,02,50,21.60
2022,07,30,02,51,21.60
2022,07,30,02,52,21.60
2022,07,30,02,53,21.60
2022,07,30,02,54,21.50
2022,07,30,02,55,21.50
2022,07,30,02,56,21.50
2022,07,30,02,57,21.40
2022,07,30,02,58,21.40
2022,07,30,02,59,21.40
2022,07,30,03,00,21.40
2022,07,30,03,01,21.40
2022,07,30,03,02,21.50
2022,07,30,03,03,21.50
2022,07,30,03,04,21.50
2022,07,30,03,05,21.50
2022,07,30,03,06,21.50
2022,07,30,03,07,21.60
2022,07,30,03,08,21.60
2022,07,30,03,09,21.60
2022,07,30,03,10,21.60
2022,07,30,03,11,21.60
2022,07,30,03,12,21.50
2022,07,30,03,13,21.50
2022,07,30,03,14,21.50
2022,07,30,03,15,21.50
2022,07,30,03,16,21.50
2022,07,30,03,17,21.40
2022,07,30,03,18,21.40
2022,07,30,03,19,21.40
2022,07,30,03,20,21.40
2022,07,30,03,21,21.40
2022,07,30,03,22,21.30
2022,07,30,03,23,21.30
2022,07,30,03,24,21.30
2022,07,30,03,25,21.30
2022,07,30,03,26,21.30
2022,07,30,03,27,21.30
2022,07,30,03,28,21.30
2022,07,30,03,29,21.30
2022,07,30,03,30,21.20
2022,07,30,03,31,21.20
2022,07,30,03,32,21.20
2022,07,30,03,33,21.20
2022,07,30,03,34,21.30
2022,07,30,03,35,21.30
2022,07,30,03,36,21.30
2022,07,30,03,37,21.30
2022,07,30,03,38,21.30
2022,07,30,03,39,21.30
2022,07,30,03,40,21.30
2022,07,30,03,41,21.30
2022,07,30,03,42,21.30
2022,07,30,03,43,21.20
2022,07,30,03,44,21.20
2022,07,30,03,45,21.20
2022,07,30,03,46,21.20
2022,07,30,03,47,21.10
2022,07,30,03,48,21.10
2022,07,30,03,49,21.10
2022,07,30,03,50,21.00
2022,07,30,03,51,21.00
2022,07,30,03,52,20.90
2022,07,30,03,53,20.90
2022,07,30,03,54,20.90
2022,07,30,03,55,20.90
2022,07,30,03,56,20.90
2022,07,30,03,57,20.80
2022,07,30,03,58,20.80
2022,07,30,03,59,20.90
2022,07,30,04,00,20.90
2022,07,30,04,01,20.90
2022,07,30,04,02,20.90
2022,07,30,04,03,20.90
2022,07,30,04,04,20.90
2022,07,30,04,05,20.90
2022,07,30,04,06,20.90
2022,07,30,04,07,20.90
2022,07,30,04,08,20.80
2022,07,30,04,09,20.80
2022,07,30,04,10,20.80
2022,07,30,04,11,20.80
2022,07,30,04,12,20.80
2022,07,30,04,13,20.80
2022,07,30,04,14,20.80
2022,07,30,04,15,20.80
2022,07,30,04,16,20.80
2022,07,30,04,17,20.90
2022,07,30,04,18,20.90
2022,07,30,04,19,20.90
2022,07,30,04,20,20.90
2022,07,30,04,21,20.90
2022,07,30,04,22,20.90
2022,07,30,04,23,20.90
2022,07,30,04,24,20.90
2022,07,30,04,25,20.90
2022,07,30,04,26,20.80
2022,07,30,04,27,20.80
2022,07,30,04,28,20.80
2022,07,30,04,29,20.70
2022,07,30,04,30,20.70
2022,07,30,04,31,20.70
2022,07,30,04,32,20.70
2022,07,30,04,33,20.60
2022,07,30,04,34,20.60
2022,07,30,04,35,20.60
2022,07,30,04,36,20.60
2022,07,30,04,37,20.50
2022,07,30,04,38,20.50
2022,07,30,04,39,20.50
2022,07,30,04,40,20.50
2022,07,30,04,41,20.50
2022,07,30,04,42,20.50
2022,07,30,04,43,20.50
2022,07,30,04,44,20.40
2022,07,30,04,45,20.40
2022,07,30,04,46,20.40
2022,07,30,04,47,20.40
2022,07,30,04,48,20.40
2022,07,30,04,49,20.40
2022,07,30,04,50,20.30
2022,07,30,04,51,20.30
2022,07,30,04,52,20.30
2022,07,30,04,53,20.30
2022,07,30,04,54,20.30
2022,07,30,04,55,20.30
2022,07,30,04,56,20.20
2022,07,30,04,57,20.20
2022,07,30,04,58,20.20
2022,07,30,04,59,20.20
2022,07,30,05,00,20.20
2022,07,30,05,01,20.20
2022,07,30,05,02,20.20
2022,07,30,05,03,20.30
2022,07,30,05,04,20.30
2022,07,30,05,05,20.30
2022,07,30,05,06,20.30
2022,07,30,05,07,20.30
2022,07,30,05,08,20.30
2022,07,30,05,09,20.40
2022,07,30,05,10,20.40
2022,07,30,05,11,20.40
2022,07,30,05,12,20.40
2022,07,30,05,13,20.40
2022,07,30,05,14,20.40
2022,07,30,05,15,20.40
2022,07,30,05,16,20.40
2022,07,30,05,17,20.30
2022,07,30,05,18,20.30
2022,07,30,05,19,20.30
2022,07,30,05,20,20.30
2022,07,30,05,21,20.20
2022,07,30,05,22,20.20
2022,07,30,05,23,20.20
2022,07,30,05,24,20.20
2022,07,30,05,25,20.20
2022,07,30,05,26,20.20
2022,07,30,05,27,20.10
2022,07,30,05,28,20.10
2022,07,30,05,29,20.10
2022,07,30,05,30,20.10
2022,07,30,05,31,20.00
2022,07,30,05,32,20.00
2022,07,30,05,33,19.90
2022,07,30,05,34,19.90
2022,07,30,05,35,19.90
2022,07,30,05,36,19.80
2022,07,30,05,37,19.80
2022,07,30,05,38,19.80
2022,07,30,05,39,19.80
2022,07,30,05,40,19.80
2022,07,30,05,41,19.80
2022,07,30,05,42,19.80
2022,07,30,05,43,19.80
2022,07,30,05,44,19.80
2022,07,30,05,45,19.80
2022,07,30,05,46,19.80
2022,07,30,05,47,19.80
2022,07,30,05,48,19.80
2022,07,30,05,49,19.80
2022,07,30,05,50,19.80
2022,07,30,05,51,19.80
2022,07,30,05,52,19.80
2022,07,30,05,53,19.80
2022,07,30,05,54,19.80
2022,07,30,05,55,19.80
2022,07,30,05,56,19.80
2022,07,30,05,57,19.80
2022,07,30,05,58,19.80
2022,07,30,05,59,19.80
2022,07,30,06,00,19.80
2022,07,30,06,01,19.80
2022,07,30,06,02,19.80
2022,07,30,06,03,19.80
2022,07,30,06,04,19.70
2022,07,30,06,05,19.70
2022,07,30,06,06,19.70
2022,07,30,06,07,19.70
2022,07,30,06,08,19.70
2022,07,30,06,09,19.70
2022,07,30,06,10,19.70
2022,07,30,06,11,19.70
2022,07,30,06,12,19.80
2022,07,30,06,13,19.80
2022,07,30,06,14,19.80
2022,07,30,06,15,19.80
2022,07,30,06,16,19.80
2022,07,30,06,17,19.80
2022,07,30,06,18,19.80
2022,07,30,06,19,19.80
2022,07,30,06,20,19.80
2022,07,30,06,21,19.80
2022,07,30,06,22,19.80
2022,07,30,06,23,19.80
2022,07,30,06,24,19.80
2022,07,30,06,25,19.80
2022,07,30,06,26,19.80
2022,07,30,06,27,19.80
2022,07,30,06,28,19.80
2022,07,30,06,29,19.80
2022,07,30,06,30,19.80
2022,07,30,06,31,19.80
2022,07,30,06,32,19.80
2022,07,30,06,33,19.80
2022,07,30,06,34,19.80
2022,07,30,06,35,19.80
2022,07,30,06,36,19.80
2022,07,30,06,37,19.80
2022,07,30,06,38,19.80
2022,07,30,06,39,19.80
2022,07,30,06,40,19.80
2022,07,30,06,41,19.80
2022,07,30,06,42,19.80
2022,07,30,06,43,19.80
2022,07,30,06,44,19.80
2022,07,30,06,45,19.80
2022,07,30,06,46,19.80
2022,07,30,06,47,19.80
2022,07,30,06,48,19.80
2022,07,30,06,49,19.80
2022,07,30,06,50,19.80
2022,07,30,06,51,19.80
2022,07,30,06,52,19.90
2022,07,30,06,53,19.90
2022,07,30,06,54,19.90
2022,07,30,06,55,19.90
2022,07,30,06,56,19.90
2022,07,30,06,57,19.90
2022,07,30,06,58,19.90
2022,07,30,06,59,20.00
2022,07,30,07,00,20.00
2022,07,30,07,01,20.00
2022,07,30,07,02,20.00
2022,07,30,07,03,20.00
2022,07,30,07,04,20.00
2022,07,30,07,05,20.00
2022,07,30,07,06,20.10
2022,07,30,07,07,20.10
2022,07,30,07,08,20.10
2022,07,30,07,09,20.20
2022,07,30,07,10,20.20
2022,07,30,07,11,20.20
2022,07,30,07,12,20.30
2022,07,30,07,13,20.30
2022,07,30,07,14,20.30
2022,07,30,07,15,20.30
2022,07,30,07,16,20.30
2022,07,30,07,17,20.40
2022,07,30,07,18,20.40
2022,07,30,07,19,20.40
2022,07,30,07,20,20.40
2022,07,30,07,21,20.40
2022,07,30,07,22,20.40
2022,07,30,07,23,20.50
2022,07,30,07,24,20.50
2022,07,30,07,25,20.50
2022,07,30,07,26,20.60
2022,07,30,07,27,20.60
2022,07,30,07,28,20.60
2022,07,30,07,29,20.60
2022,07,30,07,30,20.60
2022,07,30,07,31,20.70
2022,07,30,07,32,20.70
2022,07,30,07,33,20.70
2022,07,30,07,34,20.70
2022,07,30,07,35,20.70
2022,07,30,07,36,20.70
2022,07,30,07,37,20.70
2022,07,30,07,38,20.70
2022,07,30,07,39,20.70
2022,07,30,07,40,20.70
2022,07,30,07,41,20.70
2022,07,30,07,42,20.80
2022,07,30,07,43,20.80
2022,07,30,07,44,20.80
2022,07,30,07,45,20.80
2022,07,30,07,46,20.80
2022,07,30,07,47,20.80
2022,07,30,07,48,20.80
2022,07,30,07,49,20.90
2022,07,30,07,50,20.90
2022,07,30,07,51,20.90
2022,07,30,07,52,20.90
2022,07,30,07,53,20.90
2022,07,30,07,54,20.90
2022,07,30,07,55,20.90
2022,07,30,07,56,20.90
2022,07,30,07,57,20.90
2022,07,30,07,58,21.00
2022,07,30,07,59,21.00
2022,07,30,08,00,21.00
2022,07,30,08,01,21.00
2022,07,30,08,02,21.10
2022,07,30,08,03,21.10
2022,07,30,08,04,21.10
2022,07,30,08,05,21.10
2022,07,30,08,06,21.10
2022,07,30,08,07,21.10
2022,07,30,08,08,21.10
2022,07,30,08,09,21.10
2022,07,30,08,10,21.20
2022,07,30,08,11,21.20
2022,07,30,08,12,21.20
2022,07,30,08,13,21.30
2022,07,30,08,14,21.30
2022,07,30,08,15,21.30
2022,07,30,08,16,21.40
2022,07,30,08,17,21.40
2022,07,30,08,18,21.40
2022,07,30,08,19,21.50
2022,07,30,08,20,21.60
2022,07,30,08,21,21.60
2022,07,30,08,22,21.60
2022,07,30,08,23,21.70
2022,07,30,08,24,21.70
2022,07,30,08,25,21.80
2022,07,30,08,26,21.80
2022,07,30,08,27,21.80
2022,07,30,08,28,21.80
2022,07,30,08,29,21.90
2022,07,30,08,30,21.90
2022,07,30,08,31,21.90
2022,07,30,08,32,22.00
2022,07,30,08,33,22.00
2022,07,30,08,34,22.10
2022,07,30,08,35,22.10
2022,07,30,08,36,22.10
2022,07,30,08,37,22.10
2022,07,30,08,38,22.10
2022,07,30,08,39,22.20
2022,07,30,08,40,22.20
2022,07,30,08,41,22.20
2022,07,30,08,42,22.30
2022,07,30,08,43,22.30
2022,07,30,08,44,22.30
2022,07,30,08,45,22.40
2022,07,30,08,46,22.40
2022,07,30,08,47,22.40
2022,07,30,08,48,22.40
2022,07,30,08,49,22.50
2022,07,30,08,50,22.50
2022,07,30,08,51,22.60
2022,07,30,08,52,22.60
2022,07,30,08,53,22.70
2022,07,30,08,54,22.70
2022,07,30,08,55,22.70
2022,07,30,08,56,22.70
2022,07,30,08,57,22.70
2022,07,30,08,58,22.70
2022,07,30,08,59,22.70
2022,07,30,09,00,22.80
2022,07,30,09,01,22.80
2022,07,30,09,02,22.80
2022,07,30,09,03,22.80
2022,07,30,09,04,22.80
2022,07,30,09,05,22.80
2022,07,30,09,06,22.80
2022,07,30,09,07,22.80
2022,07,30,09,08,22.80
2022,07,30,09,09,22.80
2022,07,30,09,10,22.80
2022,07,30,09,11,22.90
2022,07,30,09,12,22.90
2022,07,30,09,13,22.90
2022,07,30,09,14,22.90
2022,07,30,09,15,23.00
2022,07,30,09,16,23.00
2022,07,30,09,17,23.10
2022,07,30,09,18,23.10
2022,07,30,09,19,23.10
2022,07,30,09,20,23.20
2022,07,30,09,21,23.20
2022,07,30,09,22,23.20
2022,07,30,09,23,23.20
2022,07,30,09,24,23.10
2022,07,30,09,25,23.10
2022,07,30,09,26,23.10
2022,07,30,09,27,23.10
2022,07,30,09,28,23.10
2022,07,30,09,29,23.20
2022,07,30,09,30,23.20
2022,07,30,09,31,23.20
2022,07,30,09,32,23.20
2022,07,30,09,33,23.20
2022,07,30,09,34,23.20
2022,07,30,09,35,23.20
2022,07,30,09,36,23.20
2022,07,30,09,37,23.20
2022,07,30,09,38,23.20
2022,07,30,09,39,23.20
2022,07,30,09,40,23.10
2022,07,30,09,41,23.10
2022,07,30,09,42,23.10
2022,07,30,09,43,23.10
2022,07,30,09,44,23.10
2022,07,30,09,45,23.10
2022,07,30,09,46,23.10
2022,07,30,09,47,23.10
2022,07,30,09,48,23.10
2022,07,30,09,49,23.10
2022,07,30,09,50,23.10
2022,07,30,09,51,23.10
2022,07,30,09,52,23.10
2022,07,30,09,53,23.10
2022,07,30,09,54,23.10
2022,07,30,09,55,23.10
2022,07,30,09,56,23.10
2022,07,30,09,57,23.10
2022,07,30,09,58,23.20
2022,07,30,09,59,23.20
2022,07,30,10,00,23.30
2022,07,30,10,01,23.30
2022,07,30,10,02,23.40
2022,07,30,10,03,23.40
2022,07,30,10,04,23.50
2022,07,30,10,05,23.60
2022,07,30,10,06,23.60
2022,07,30,10,07,23.70
2022,07,30,10,08,23.70
2022,07,30,10,09,23.70
2022,07,30,10,10,23.70
2022,07,30,10,11,23.70
2022,07,30,10,12,23.70
2022,07,30,10,13,23.80
2022,07,30,10,14,23.80
2022,07,30,10,15,23.90
2022,07,30,10,16,24.00
2022,07,30,10,17,24.10
2022,07,30,10,18,24.10
2022,07,30,10,19,24.20
2022,07,30,10,20,24.20
2022,07,30,10,21,24.30
2022,07,30,10,22,24.40
2022,07,30,10,23,24.40
2022,07,30,10,24,24.40
2022,07,30,10,25,24.40
2022,07,30,10,26,24.50
2022,07,30,10,27,24.50
2022,07,30,10,28,24.50
2022,07,30,10,29,24.60
2022,07,30,10,30,24.60
2022,07,30,10,31,24.60
2022,07,30,10,32,24.60
2022,07,30,10,33,24.60
2022,07,30,10,34,24.70
2022,07,30,10,35,24.70
2022,07,30,10,36,24.70
2022,07,30,10,37,24.70
2022,07,30,10,38,24.70
2022,07,30,10,39,24.70
2022,07,30,10,40,24.70
2022,07,30,10,41,24.70
2022,07,30,10,42,24.60
2022,07,30,10,43,24.60
2022,07,30,10,44,24.60
2022,07,30,10,45,24.60
2022,07,30,10,46,24.70
2022,07,30,10,47,24.70
2022,07,30,10,48,24.80
2022,07,30,10,49,24.90
2022,07,30,10,50,24.90
2022,07,30,10,51,24.90
2022,07,30,10,52,25.00
2022,07,30,10,53,25.10
2022,07,30,10,54,25.10
2022,07,30,10,55,25.20
2022,07,30,10,56,25.30
2022,07,30,10,57,25.30
2022,07,30,10,58,25.30
2022,07,30,10,59,25.30
2022,07,30,11,00,25.30
2022,07,30,11,01,25.30
2022,07,30,11,02,25.30
2022,07,30,11,03,25.30
2022,07,30,11,04,25.40
2022,07,30,11,05,25.40
2022,07,30,11,06,25.40
2022,07,30,11,07,25.40
2022,07,30,11,08,25.50
2022,07,30,11,09,25.50
2022,07,30,11,10,25.60
2022,07,30,11,11,25.60
2022,07,30,11,12,25.70
2022,07,30,11,13,25.70
2022,07,30,11,14,25.70
2022,07,30,11,15,25.70
2022,07,30,11,16,25.70
2022,07,30,11,17,25.70
2022,07,30,11,18,25.70
2022,07,30,11,19,25.80
2022,07,30,11,20,25.80
2022,07,30,11,21,25.80
2022,07,30,11,22,25.90
2022,07,30,11,23,25.90
2022,07,30,11,24,26.00
2022,07,30,11,25,26.00
2022,07,30,11,26,26.10
2022,07,30,11,27,26.10
2022,07,30,11,28,26.10
2022,07,30,11,29,26.20
2022,07,30,11,30,26.20
2022,07,30,11,31,26.20
2022,07,30,11,32,26.20
2022,07,30,11,33,26.20
2022,07,30,11,34,26.20
2022,07,30,11,35,26.30
2022,07,30,11,36,26.30
2022,07,30,11,37,26.30
2022,07,30,11,38,26.30
2022,07,30,11,39,26.30
2022,07,30,11,40,26.30
2022,07,30,11,41,26.30
2022,07,30,11,42,26.30
2022,07,30,11,43,26.30
2022,07,30,11,44,26.30
2022,07,30,11,45,26.30
2022,07,30,11,46,26.40
2022,07,30,11,47,26.40
2022,07,30,11,48,26.50
2022,07,30,11,49,26.50
2022,07,30,11,50,26.50
2022,07,30,11,51,26.50
2022,07,30,11,52,26.50
2022,07,30,11,53,26.60
2022,07,30,11,54,26.60
2022,07,30,11,55,26.50
2022,07,30,11,56,26.50
2022,07,30,11,57,26.40
2022,07,30,11,58,26.50
2022,07,30,11,59,26.50
2022,07,30,12,00,26.60
2022,07,30,12,01,26.60
2022,07,30,12,02,26.70
2022,07,30,12,03,26.80
2022,07,30,12,04,26.80
2022,07,30,12,05,26.80
2022,07,30,12,06,26.80
2022,07,30,12,07,26.80
2022,07,30,12,08,26.80
2022,07,30,12,09,26.70
2022,07,30,12,10,26.60
2022,07,30,12,11,26.50
2022,07,30,12,12,26.40
2022,07,30,12,13,26.30
2022,07,30,12,14,26.20
2022,07,30,12,15,26.10
2022,07,30,12,16,26.00
2022,07,30,12,17,26.00
2022,07,30,12,18,25.90
2022,07,30,12,19,25.90
2022,07,30,12,20,25.90
2022,07,30,12,21,26.00
2022,07,30,12,22,26.00
2022,07,30,12,23,26.10
2022,07,30,12,24,26.20
2022,07,30,12,25,26.20
2022,07,30,12,26,26.20
2022,07,30,12,27,26.30
2022,07,30,12,28,26.30
2022,07,30,12,29,26.30
2022,07,30,12,30,26.30
2022,07,30,12,31,26.40
2022,07,30,12,32,26.40
2022,07,30,12,33,26.40
2022,07,30,12,34,26.40
2022,07,30,12,35,26.40
2022,07,30,12,36,26.40
2022,07,30,12,37,26.40
2022,07,30,12,38,26.40
2022,07,30,12,39,26.50
2022,07,30,12,40,26.50
2022,07,30,12,41,26.60
2022,07,30,12,42,26.60
2022,07,30,12,43,26.60
2022,07,30,12,44,26.60
2022,07,30,12,45,26.60
2022,07,30,12,46,26.60
2022,07,30,12,47,26.50
2022,07,30,12,48,26.40
2022,07,30,12,49,26.40
2022,07,30,12,50,26.40
2022,07,30,12,51,26.30
2022,07,30,12,52,26.30
2022,07,30,12,53,26.30
2022,07,30,12,54,26.20
2022,07,30,12,55,26.20
2022,07,30,12,56,26.20
2022,07,30,12,57,26.20
2022,07,30,12,58,26.20
2022,07,30,12,59,26.30
2022,07,30,13,00,26.30
2022,07,30,13,01,26.30
2022,07,30,13,02,26.20
2022,07,30,13,03,26.20
2022,07,30,13,04,26.10
2022,07,30,13,05,26.00
2022,07,30,13,06,25.80
2022,07,30,13,07,25.60
2022,07,30,13,08,25.50
2022,07,30,13,09,25.40
2022,07,30,13,10,25.40
2022,07,30,13,11,25.40
2022,07,30,13,12,25.50
2022,07,30,13,13,25.60
2022,07,30,13,14,25.60
2022,07,30,13,15,25.60
2022,07,30,13,16,25.50
2022,07,30,13,17,25.50
2022,07,30,13,18,25.40
2022,07,30,13,19,25.40
2022,07,30,13,20,25.50
2022,07,30,13,21,25.50
2022,07,30,13,22,25.60
2022,07,30,13,23,25.70
2022,07,30,13,24,25.70
2022,07,30,13,25,25.80
2022,07,30,13,26,25.90
2022,07,30,13,27,25.90
2022,07,30,13,28,26.00
2022,07,30,13,29,26.10
2022,07,30,13,30,26.10
2022,07,30,13,31,26.20
2022,07,30,13,32,26.20
2022,07,30,13,33,26.30
2022,07,30,13,34,26.40
2022,07,30,13,35,26.40
2022,07,30,13,36,26.50
2022,07,30,13,37,26.60
2022,07,30,13,38,26.70
2022,07,30,13,39,26.70
2022,07,30,13,40,26.80
2022,07,30,13,41,26.80
2022,07,30,13,42,26.90
2022,07,30,13,43,26.90
2022,07,30,13,44,26.90
2022,07,30,13,45,26.90
2022,07,30,13,46,26.90
2022,07,30,13,47,27.00
2022,07,30,13,48,27.00
2022,07,30,13,49,27.10
2022,07,30,13,50,27.20
2022,07,30,13,51,27.20
2022,07,30,13,52,27.30
2022,07,30,13,53,27.30
2022,07,30,13,54,27.40
2022,07,30,13,55,27.40
2022,07,30,13,56,27.50
2022,07,30,13,57,27.60
2022,07,30,13,58,27.60
2022,07,30,13,59,27.70
2022,07,30,14,00,27.80
2022,07,30,14,01,27.80
2022,07,30,14,02,27.80
2022,07,30,14,03,27.90
2022,07,30,14,04,27.90
2022,07,30,14,05,27.90
2022,07,30,14,06,28.00
2022,07,30,14,07,28.00
2022,07,30,14,08,28.00
2022,07,30,14,09,28.00
2022,07,30,14,10,28.10
2022,07,30,14,11,28.10
2022,07,30,14,12,28.10
2022,07,30,14,13,28.10
2022,07,30,14,14,28.00
2022,07,30,14,15,28.00
2022,07,30,14,16,27.90
2022,07,30,14,17,27.90
2022,07,30,14,18,27.80
2022,07,30,14,19,27.80
2022,07,30,14,20,27.80
2022,07,30,14,21,27.80
2022,07,30,14,22,27.80
2022,07,30,14,23,27.80
2022,07,30,14,24,27.90
2022,07,30,14,25,27.90
2022,07,30,14,26,28.00
2022,07,30,14,27,28.00
2022,07,30,14,28,28.00
2022,07,30,14,29,28.10
2022,07,30,14,30,28.10
2022,07,30,14,31,28.10
2022,07,30,14,32,28.20
2022,07,30,14,33,28.20
2022,07,30,14,34,28.30
2022,07,30,14,35,28.40
2022,07,30,14,36,28.60
2022,07,30,14,37,28.70
2022,07,30,14,38,28.80
2022,07,30,14,39,28.80
2022,07,30,14,40,28.90
2022,07,30,14,41,29.00
2022,07,30,14,42,29.00
2022,07,30,14,43,29.10
2022,07,30,14,44,29.20
2022,07,30,14,45,29.30
2022,07,30,14,46,29.30
2022,07,30,14,47,29.30
2022,07,30,14,48,29.40
2022,07,30,14,49,29.50
2022,07,30,14,50,29.50
2022,07,30,14,51,29.50
2022,07,30,14,52,29.60
2022,07,30,14,53,29.60
2022,07,30,14,54,29.50
2022,07,30,14,55,29.50
2022,07,30,14,56,29.50
2022,07,30,14,57,29.50
2022,07,30,14,58,29.50
2022,07,30,14,59,29.60
2022,07,30,15,00,29.60
2022,07,30,15,01,29.60
2022,07,30,15,02,29.60
2022,07,30,15,03,29.60
2022,07,30,15,04,29.60
2022,07,30,15,05,29.60
2022,07,30,15,06,29.60
2022,07,30,15,07,29.60
2022,07,30,15,08,29.60
2022,07,30,15,09,29.60
2022,07,30,15,10,29.60
2022,07,30,15,11,29.60
2022,07,30,15,12,29.60
2022,07,30,15,13,29.60
2022,07,30,15,14,29.60
2022,07,30,15,15,29.50
2022,07,30,15,16,29.50
2022,07,30,15,17,29.50
2022,07,30,15,18,29.40
2022,07,30,15,19,29.40
2022,07,30,15,20,29.30
2022,07,30,15,21,29.30
2022,07,30,15,22,29.30
2022,07,30,15,23,29.40
2022,07,30,15,24,29.40
2022,07,30,15,25,29.40
2022,07,30,15,26,29.40
2022,07,30,15,27,29.50
2022,07,30,15,28,29.50
2022,07,30,15,29,29.60
2022,07,30,15,30,29.60
2022,07,30,15,31,29.60
2022,07,30,15,32,29.60
2022,07,30,15,33,29.60
2022,07,30,15,34,29.60
2022,07,30,15,35,29.60
2022,07,30,15,36,29.60
2022,07,30,15,37,29.60
2022,07,30,15,38,29.60
2022,07,30,15,39,29.60
2022,07,30,15,40,29.70
2022,07,30,15,41,29.80
2022,07,30,15,42,29.80
2022,07,30,15,43,29.90
2022,07,30,15,44,29.90
2022,07,30,15,45,30.00
2022,07,30,15,46,30.10
2022,07,30,15,47,30.10
2022,07,30,15,48,30.20
2022,07,30,15,49,30.30
2022,07,30,15,50,30.40
2022,07,30,15,51,30.40
2022,07,30,15,52,30.50
2022,07,30,15,53,30.60
2022,07,30,15,54,30.60
2022,07,30,15,55,30.70
2022,07,30,15,56,30.80
2022,07,30,15,57,30.80
2022,07,30,15,58,30.90
2022,07,30,15,59,30.90
2022,07,30,16,00,30.90
2022,07,30,16,01,31.00
2022,07,30,16,02,31.00
2022,07,30,16,03,31.00
2022,07,30,16,04,31.00
2022,07,30,16,05,31.00
2022,07,30,16,06,31.00
2022,07,30,16,07,31.10
2022,07,30,16,08,31.20
2022,07,30,16,09,31.20
2022,07,30,16,10,31.20
2022,07,30,16,11,31.20
2022,07,30,16,12,31.20
2022,07,30,16,13,31.20
2022,07,30,16,14,31.20
2022,07,30,16,15,31.20
2022,07,30,16,16,31.20
2022,07,30,16,17,31.20
2022,07,30,16,18,31.20
2022,07,30,16,19,31.30
2022,07,30,16,20,31.40
2022,07,30,16,21,31.40
2022,07,30,16,22,31.50
2022,07,30,16,23,31.50
2022,07,30,16,24,31.40
2022,07,30,16,25,31.40
2022,07,30,16,26,31.40
2022,07,30,16,27,31.40
2022,07,30,16,28,31.40
2022,07,30,16,29,31.40
2022,07,30,16,30,31.40
2022,07,30,16,31,31.30
2022,07,30,16,32,31.30
2022,07,30,16,33,31.30
2022,07,30,16,34,31.30
2022,07,30,16,35,31.40
2022,07,30,16,36,31.40
2022,07,30,16,37,31.40
2022,07,30,16,38,31.40
2022,07,30,16,39,31.40
2022,07,30,16,40,31.40
2022,07,30,16,41,31.40
2022,07,30,16,42,31.40
2022,07,30,16,43,31.40
2022,07,30,16,44,31.30
2022,07,30,16,45,31.30
2022,07,30,16,46,31.30
2022,07,30,16,47,31.30
2022,07,30,16,48,31.30
2022,07,30,16,49,31.30
2022,07,30,16,50,31.30
2022,07,30,16,51,31.40
2022,07,30,16,52,31.40
2022,07,30,16,53,31.40
2022,07,30,16,54,31.40
2022,07,30,16,55,31.40
2022,07,30,16,56,31.40
2022,07,30,16,57,31.40
2022,07,30,16,58,31.40
2022,07,30,16,59,31.40
2022,07,30,17,00,31.40
2022,07,30,17,01,31.40
2022,07,30,17,02,31.40
2022,07,30,17,03,31.40
2022,07,30,17,04,31.40
2022,07,30,17,05,31.40
2022,07,30,17,06,31.40
2022,07,30,17,07,31.40
2022,07,30,17,08,31.30
2022,07,30,17,09,31.40
2022,07,30,17,10,31.30
2022,07,30,17,11,31.30
2022,07,30,17,12,31.30
2022,07,30,17,13,31.30
2022,07,30,17,14,31.20
2022,07,30,17,15,31.20
2022,07,30,17,16,31.20
2022,07,30,17,17,31.10
2022,07,30,17,18,31.10
2022,07,30,17,19,31.10